Tracking 31027 objects as of 19-Jul-2025
HD Live streaming from Space Station
objects crossing your sky now

METEOR 2-17 DEB

Track METEOR 2-17 DEB now!
10-day predictions


NORAD ID: 38541
Int'l Code: 1988-005AU
Perigee: 861.0 km
Apogee: 877.3 km
Inclination: 82.5 °
Period: 102.2 minutes
Semi major axis: 7240 km
RCS: 0.003 m2 (small)
Launch date: January 30, 1988
Source: Commonwealth of Independent States (former USSR) (CIS)
Launch site: PLESETSK MISSILE AND SPACE COMPLEX (PKMTR)

Note: This is SATELLITE DEBRIS
Your satellite tracking list
STARLINK-31879
Track 1 satellite(s)




NASA's NSSDC Master Catalog

Two Line Element Set (TLE):
1 38541U 88005AU  25198.15763501  .00002941  00000-0  16817-2 0  9996
2 38541  82.5199 148.8474 0011262  84.4511 275.7947 14.09235979612399
Source of the keplerian elements: AFSPC